User: anonymous   Login
Location: Bijele Vode
(45.2833°N, 16.2000°E)
Time: 01:55:21
(UTC+00:00)
Language:

CUBESAT XI-V - Orbit

View from above orbital plane
View from above orbital plane
View from above satellite
View from above satellite

Ground track
Ground track

The orbit data is extracted from the following two-line orbital elements,

1 28895U 05043F   21339.84427394  .00000271  00000-0  60645-4 0  9998
2 28895  98.0818 109.5906 0017303  34.7466 325.4863 14.64018838859312
Epoch (UTC): 05 December 2021 20:15:45
Eccentricity: 0.0017303
inclination: 98.0818°
perigee height: 668 km
apogee height: 692 km
right ascension of ascending node: 109.5906°
argument of perigee: 34.7466°
revolutions per day: 14.64018838
mean anomaly at epoch: 325.4863°
orbit number at epoch: 85931

The dashed part of the orbit path shows where the satellite is in the earth's shadow,  

DLR